Погода в Быхове

Беларусь     53°31′05″N   30°14′25″E
темп.,
°C
ветер,
м/с
пор.,
м/с
влажн.,
%
обл.,
%
осадки,
мм/ч
давл.,
гПа
погр.,
м
8 марта, пн
пн800:00−3з5119172 0.1 1005429
03:00−4з5119052 0.1 1005348
06:00−5з4119226 0.0 1005398
09:00−5з499047 0.0 1006531
12:00−2зсз4682100 0.2 1008798
15:00−2ссз677699 1.0 10091075
18:00−5ссз598388 0.1 1011595
21:00−7ссз499091 0.1 1014344
9 марта, вт
вт900:00−8ссз489188 0.0 1016334
03:00−10ссз369481 0.0 1018181
06:00−11ссз369435 0.0 1019157
09:00−10ссз369218 0.0 1021256
12:00−6ссз468156 0.0 1021797
15:00−5ссз467366 0.0 1022944
18:00−6ссз35800 0.0 1022165
21:00−9с11820 0.0 102421
10 марта, ср
ср1000:00−9ююз22825 0.0 102521
03:00−9юз348921 0.0 102588
06:00−8зюз3690100 0.0 1024145
09:00−6з488799 0.0 1025309
12:00−3з467599 0.0 1025601
15:00−2сз347499 0.0 1026832
18:00−4св3593100 0.2 1026234
21:00−8в4794100 0.3 1028316
11 марта, чт
чт1100:00−10вюв479396 0.1 1030310
03:00−11вюв469497 0.1 1030266
06:00−13вюв469397 0.0 1030255
09:00−13юв469289 0.0 1031261
12:00−9юв578891 0.0 1030344
15:00−6ююв578679 0.0 1028425
18:00−6ююв6109085 0.0 1026464
21:00−7ююв7139393 0.0 1025436
12 марта, пт
пт1200:00−8ююв71589100 0.0 1023470
03:00−7ююв81586100 0.0 1019593
06:00−6ююв91682100 0.0 1015735
09:00−4ю101894100 1.0 1012871
12:00−2ю101694100 2.4 1009939
15:000ю81499100 3.1 1008694
18:00+2юз61298100 0.7 1008372
21:00+2юз51096100 0.8 1009336